Miscellaneous Local Product
Issued by NWS North Platte, NE

Home | Current Version | Previous Version | Text Only | Print | Product List | Glossary On
Versions: 1 2 3 4 5 6 7 8 9 10 11 12 13 14 15 16 17 18 19 20 21 22 23 24 25 26 27 28 29 30 31 32 33 34 35 36 37 38 39 40 41 42 43 44 45 46 47 48 49 50
000
AXUS43 KLBF 231510
MISLBF


WESTERN AND NORTH CENTRAL NEBRASKA HOURLY WEATHER ROUNDUP
NATIONAL WEATHER SERVICE NORTH PLATTE NE
1000 AM CDT SAT MAY 23 2015

***STATIONS NOT REPORTING VARIABLES SUCH AS SKY/WEATHER OR
PRESSURE ARE PROVIDED BY THE NEBRASKA DEPARTMENT OF
ROADS...RAWS...AND APRS NETWORKS...AND ARE NOT UNDER
NATIONAL WEATHER SERVICE QUALITY CONTROL***

...OBSERVATIONS IN AND NEAR THE EASTERN PANHANDLE OF NEBRASKA...

CITY           SKY/WX    TMP DP  RH WIND       PRES   REMARKS
PINE RIDGE     PTSUNNY   54  47  77 E12       30.05F
CHADRON        CLOUDY    53  47  79 SE10      30.04S
ALLIANCE       CLOUDY    52  51  97 SE12      30.03S
SIDNEY         FOG       51  50  96 SE10      30.04S VSB 1
WHITECLAY        N/A     49  45  85 E13         N/A
BIG SPRINGS      N/A     54  53  97 SE13        N/A
$$

...OBSERVATIONS IN NORTH CENTRAL NEBRASKA...

CITY           SKY/WX    TMP DP  RH WIND       PRES   REMARKS
VALENTINE      CLOUDY    54  53  97 S6        30.10F
THEDFORD       CLOUDY    55  54  95 SE9       30.10S
AINSWORTH      CLOUDY    55  55 100 S8        30.11S
O`NEILL        CLOUDY    55  52  89 S9        30.16R
ORD            CLOUDY    53  51  93 SE12      30.12F
BROKEN BOW       N/A     54  53  97 SE13      30.11S
VALENTINE NWR    N/A     53  53  99 SE9         N/A
SPRINGVIEW       N/A     54  53  95 SE5G12      N/A
ROSE             N/A     52  52  99 E9          N/A
NEWPORT          N/A     53  52  99 SE12        N/A
SARGENT          N/A     53  52  97 CALM        N/A
COMSTOCK         N/A     56  56  99 S12         N/A
EWING            N/A     55  52  90 S6          N/A
$$

...OBSERVATIONS IN SOUTHWEST NEBRASKA AND FAR NORTHEAST COLORADO...

CITY           SKY/WX    TMP DP  RH WIND       PRES   REMARKS
WRAY           CLOUDY   N/A N/A N/A SE7       30.01F HAZE
IMPERIAL       CLOUDY    54  52  93 SE14      30.03S
OGALLALA       CLOUDY    53  53  98 SE8       30.05R FOG
NORTH PLATTE   CLOUDY    54  52  93 SE9       30.08R
MCCOOK         CLOUDY    54  53  97 S10       30.07R
LEXINGTON      CLOUDY    55  54  97 SE12      30.10R FOG
PAXTON           N/A     54  53  97 SE13        N/A
GOTHENBURG       N/A     53  51  93 SE8         N/A
CALLAWAY         N/A     53  53  99 E14         N/A
$$

...NORTH PLATTE AREA...

CITY           SKY/WX    TMP DP  RH WIND       PRES   REMARKS
AIRPORT        CLOUDY    54  52  93 SE9       30.08R
DOWNTOWN         N/A     53  51  95 E5          N/A
$$

...SOME WEATHER OBSERVATIONS FROM AROUND THE REGION...

CITY           SKY/WX    TMP DP  RH WIND       PRES   REMARKS
DENVER         CLOUDY    51  49  92 SE5       30.03S
LARAMIE        PTSUNNY   47  40  76 SE8       30.03R
CHEYENNE       CLOUDY    47  44  90 S8        30.03F
SCOTTSBLUFF    CLOUDY    50  50 100 E8        30.03S
RAPID CITY     CLOUDY    50  46  86 SE14      30.07R
PIERRE         CLOUDY    52  49  89 SE15      30.12R
WINNER         LGT RAIN  54  51  90 SE14      30.12S FOG
SIOUX FALLS    CLOUDY    58  51  78 E9        30.20R
OMAHA          CLOUDY    62  53  72 S13       30.20S
GRAND ISLAND   CLOUDY    54  52  93 SE9       30.16R
KANSAS CITY    CLOUDY    62  55  77 S10       30.23R
WICHITA        LGT RAIN  58  57  97 SE13      30.14F FOG
HAYS           CLOUDY    55  48  76 SE12      30.10S
LIBERAL        CLOUDY    57  52  82 E17       30.05F
GOODLAND       CLOUDY    52  52 100 SE21G31   30.02S FOG
$$



USA.gov is the U.S. government's official web portal to all federal, state and local government web resources and services.